This is the latest recevied weather packets stored in our database for station/object G4WLC-1. If no packets are shown the sender has not sent any weather packets the latest 10 day(s).
| Time | Temp. | Humidity | Pressure | Rain* | Wind** | Luminosity | Snow |
|---|---|---|---|---|---|---|---|
| 1777837089 | 11.67° C | 90% | 1010.1 hPa | 0.25 mm | - | - | - |
| 1777836789 | 11.67° C | 90% | 1010.2 hPa | 0.25 mm | - | - | - |
| 1777836489 | 11.67° C | 89% | 1010.1 hPa | 0.25 mm | - | - | - |
| 1777836189 | 11.67° C | 89% | 1010 hPa | 0.25 mm | - | - | - |
| 1777835889 | 11.67° C | 89% | 1010 hPa | 0.25 mm | - | - | - |
| 1777835589 | 12.22° C | 89% | 1009.9 hPa | 0.25 mm | - | - | - |
| 1777835289 | 12.22° C | 89% | 1009.8 hPa | 0.25 mm | - | - | - |
| 1777834989 | 12.22° C | 88% | 1009.7 hPa | 0.25 mm | - | - | - |
| 1777834689 | 12.78° C | 88% | 1009.7 hPa | 0.25 mm | - | - | - |
| 1777834389 | 12.78° C | 88% | 1009.8 hPa | 0.25 mm | - | - | - |
| 1777834089 | 13.33° C | 87% | 1009.7 hPa | 0.25 mm | - | - | - |
| 1777833789 | 13.33° C | 87% | 1009.8 hPa | 0 mm | - | - | - |
| 1777833489 | 13.33° C | 86% | 1009.7 hPa | 0 mm | - | - | - |
| 1777833189 | 13.33° C | 85% | 1009.7 hPa | 0 mm | - | - | - |
| 1777832889 | 13.89° C | 86% | 1009.7 hPa | 0 mm | - | - | - |
| 1777832589 | 13.89° C | 85% | 1009.7 hPa | 0 mm | - | - | - |
| 1777832289 | 13.89° C | 86% | 1009.7 hPa | 0 mm | - | - | - |
| 1777831989 | 14.44° C | 85% | 1009.5 hPa | 0 mm | - | - | - |
| 1777831689 | 13.89° C | 85% | 1009.5 hPa | 0 mm | - | - | - |
| 1777831389 | 14.44° C | 85% | 1009.5 hPa | 0 mm | - | - | - |
| 1777831089 | 14.44° C | 84% | 1009.6 hPa | 0 mm | - | - | - |
| 1777830789 | 14.44° C | 84% | 1009.5 hPa | 0 mm | - | - | - |
| 1777830489 | 14.44° C | 83% | 1009.4 hPa | 0 mm | - | - | - |
| 1777830189 | 14.44° C | 83% | 1009.3 hPa | 0 mm | - | - | - |
| 1777829889 | 14.44° C | 83% | 1009.3 hPa | 0 mm | - | - | - |
* Rain latest hour (hover to see other rain measurements)
** Current wind speed in m/s (hover to see current wind gust speed)